Tracking 19709 objects as of 18-Jun-2019
HD Live streaming from Space Station
objects crossing your sky now

CZ-2C R/B


CZ-2C R/B is no longer on orbit


NORAD ID: 37942
Int'l Code: 2011-072B
Perigee: N/A
Apogee: N/A
Inclination: N/A
Period: N/A
Semi major axis: N/A
RCS: N/A
Launch date: November 29, 2011
Source: People's Republic of China (PRC)
Launch site: Taiyaun Space Center, China (TSC)
Decay date: 2014-03-19

Note: This is a ROCKET BODY
aabbcc
Your satellite tracking list
Your tracking list is empty




NASA's NSSDC Master Catalog

Two Line Element Set (TLE):
1 37942U 11072B   14078.43962198  .34961974  27228-5  15172-3 0  9996
2 37942 097.0637 023.1112 0010072 182.9771 177.8691 16.56944382130386
Source of the keplerian elements: AFSPC